Location: Burgwalden
(48.2830°N, 10.7576°E)
Time: 22:19:29
(UTC+00:00)

CZ-2D R/B - Pass Details

Date: 26 September 2023
Orbit: 790 x 844 km, 98.8° (Epoch: 08 December)

Event Time Altitude Azimuth Distance (km) Brightness Sun altitude
Rises 03:19:56 0° 0° (N) 3,409 5.6 -18.5°
Reaches altitude 10° 03:23:52 10° 332° (NNW) 2,461 4.5 -17.9°
Maximum altitude 03:25:54 12° 310° (NW) 2,298 4.2 -17.6°
Enters shadow 03:26:23 12° 304° (NW) 2,305 4.1 -17.5°
